TimeEDT,TemperatureF,Dew PointF,Humidity,Sea Level PressureIn,VisibilityMPH,Wind Direction,Wind SpeedMPH,Gust SpeedMPH,PrecipitationIn,Events,Conditions,WindDirDegrees,DateUTC
12:15 AM,55.4,46.4,72,30.20,10.0,West,4.6,-,N/A,,Clear,260,2011-10-05 04:15:00
12:34 AM,53.6,48.2,82,30.20,10.0,WSW,5.8,-,N/A,,Clear,250,2011-10-05 04:34:00
1:34 AM,55.4,50.0,82,30.20,10.0,West,4.6,-,N/A,,Clear,260,2011-10-05 05:34:00
1:55 AM,55.4,50.0,82,30.20,10.0,West,3.5,-,N/A,,Clear,270,2011-10-05 05:55:00
2:15 AM,55.4,50.0,82,30.20,10.0,West,3.5,-,N/A,,Clear,270,2011-10-05 06:15:00
2:34 AM,55.4,50.0,82,30.20,10.0,West,4.6,-,N/A,,Clear,280,2011-10-05 06:34:00
2:55 AM,55.4,51.8,88,30.21,10.0,WNW,3.5,-,N/A,,Clear,290,2011-10-05 06:55:00
3:15 AM,55.4,51.8,88,30.20,10.0,West,4.6,-,N/A,,Clear,270,2011-10-05 07:15:00
3:55 AM,55.4,51.8,88,30.20,10.0,WNW,4.6,-,N/A,,Clear,290,2011-10-05 07:55:00
4:15 AM,53.6,51.8,94,30.21,10.0,West,3.5,-,N/A,,Clear,280,2011-10-05 08:15:00
4:34 AM,53.6,50.0,88,30.21,10.0,West,3.5,-,N/A,,Clear,270,2011-10-05 08:34:00
4:55 AM,53.6,50.0,88,30.21,10.0,Calm,Calm,-,N/A,,Clear,0,2011-10-05 08:55:00
5:15 AM,53.6,51.8,94,30.21,10.0,West,3.5,-,N/A,,Clear,260,2011-10-05 09:15:00
5:35 AM,53.6,51.8,94,30.21,10.0,Calm,Calm,-,N/A,,Clear,0,2011-10-05 09:35:00
5:55 AM,53.6,50.0,88,30.21,10.0,WSW,3.5,-,N/A,,Clear,250,2011-10-05 09:55:00
6:14 AM,53.6,50.0,88,30.22,10.0,West,3.5,-,N/A,,Clear,280,2011-10-05 10:14:00
6:35 AM,51.8,50.0,94,30.23,10.0,Calm,Calm,-,N/A,,Clear,0,2011-10-05 10:35:00
6:55 AM,50.0,50.0,100,30.23,10.0,Calm,Calm,-,N/A,,Clear,0,2011-10-05 10:55:00
7:14 AM,50.0,50.0,100,30.24,10.0,Calm,Calm,-,N/A,,Clear,0,2011-10-05 11:14:00
7:35 AM,50.0,48.2,94,30.24,10.0,Calm,Calm,-,N/A,,Clear,0,2011-10-05 11:35:00
7:55 AM,50.0,48.2,94,30.25,10.0,Calm,Calm,-,N/A,,Clear,0,2011-10-05 11:55:00
8:14 AM,50.0,48.2,94,30.25,10.0,Calm,Calm,-,N/A,,Clear,0,2011-10-05 12:14:00
8:35 AM,50.0,50.0,100,30.26,10.0,Calm,Calm,-,N/A,,Clear,0,2011-10-05 12:35:00
8:55 AM,53.6,51.8,94,30.27,10.0,Calm,Calm,-,N/A,,Clear,0,2011-10-05 12:55:00
9:14 AM,53.6,51.8,94,30.27,10.0,Calm,Calm,-,N/A,,Clear,0,2011-10-05 13:14:00
9:35 AM,55.4,51.8,88,30.28,10.0,Calm,Calm,-,N/A,,Clear,0,2011-10-05 13:35:00
10:14 AM,55.4,50.0,82,30.29,10.0,East,5.8,-,N/A,,Clear,100,2011-10-05 14:14:00
10:35 AM,55.4,50.0,82,30.30,10.0,ESE,9.2,16.1,N/A,,Clear,120,2011-10-05 14:35:00
10:55 AM,55.4,50.0,82,30.30,10.0,ESE,5.8,-,N/A,,Clear,120,2011-10-05 14:55:00
11:15 AM,55.4,46.4,72,30.30,10.0,East,8.1,23.0,N/A,,Clear,100,2011-10-05 15:15:00
11:35 AM,55.4,44.6,67,30.31,10.0,ESE,11.5,24.2,N/A,,Clear,110,2011-10-05 15:35:00
11:55 AM,55.4,46.4,72,30.31,10.0,ESE,8.1,18.4,N/A,,Clear,110,2011-10-05 15:55:00
12:15 PM,55.4,46.4,72,30.31,10.0,ESE,9.2,20.7,N/A,,Clear,120,2011-10-05 16:15:00
12:35 PM,55.4,46.4,72,30.32,10.0,ESE,9.2,23.0,N/A,,Clear,110,2011-10-05 16:35:00
12:55 PM,55.4,46.4,72,30.31,10.0,ESE,9.2,16.1,N/A,,Clear,110,2011-10-05 16:55:00
1:15 PM,55.4,46.4,72,30.31,10.0,East,8.1,21.9,N/A,,Clear,100,2011-10-05 17:15:00
1:35 PM,57.2,46.4,67,30.31,10.0,ESE,8.1,19.6,N/A,,Clear,110,2011-10-05 17:35:00
1:54 PM,55.4,46.4,72,30.31,10.0,ESE,6.9,20.7,N/A,,Clear,110,2011-10-05 17:54:00
2:15 PM,55.4,44.6,67,30.30,10.0,ESE,10.4,18.4,N/A,,Clear,110,2011-10-05 18:15:00
2:34 PM,57.2,44.6,63,30.30,10.0,East,8.1,23.0,N/A,,Clear,100,2011-10-05 18:34:00
2:55 PM,55.4,44.6,67,30.30,10.0,ESE,9.2,23.0,N/A,,Clear,110,2011-10-05 18:55:00
3:15 PM,57.2,42.8,59,30.30,10.0,ESE,9.2,18.4,N/A,,Clear,110,2011-10-05 19:15:00
3:34 PM,55.4,42.8,63,30.30,10.0,ESE,15.0,21.9,N/A,,Clear,120,2011-10-05 19:34:00
3:55 PM,55.4,42.8,63,30.30,10.0,ESE,8.1,23.0,N/A,,Clear,110,2011-10-05 19:55:00
4:15 PM,57.2,42.8,59,30.30,7.0,ESE,11.5,21.9,N/A,,Scattered Clouds,120,2011-10-05 20:15:00
4:35 PM,57.2,42.8,59,30.30,10.0,ESE,12.7,20.7,N/A,,Scattered Clouds,120,2011-10-05 20:35:00
4:55 PM,55.4,42.8,63,30.30,10.0,ESE,8.1,16.1,N/A,,Clear,110,2011-10-05 20:55:00
5:15 PM,57.2,33.8,41,30.30,10.0,ESE,8.1,25.3,N/A,,Clear,120,2011-10-05 21:15:00
5:35 PM,57.2,35.6,44,30.30,10.0,ESE,8.1,21.9,N/A,,Clear,120,2011-10-05 21:35:00
5:55 PM,55.4,37.4,51,30.29,10.0,ESE,9.2,18.4,N/A,,Clear,110,2011-10-05 21:55:00
6:35 PM,55.4,37.4,51,30.29,10.0,ESE,9.2,19.6,N/A,,Clear,110,2011-10-05 22:35:00
6:55 PM,55.4,37.4,51,30.29,10.0,ESE,8.1,-,N/A,,Clear,110,2011-10-05 22:55:00
7:15 PM,53.6,35.6,51,30.28,10.0,ESE,10.4,18.4,N/A,,Clear,120,2011-10-05 23:15:00
7:34 PM,53.6,35.6,51,30.28,10.0,ESE,9.2,21.9,N/A,,Clear,120,2011-10-05 23:34:00
7:55 PM,53.6,41.0,62,30.28,10.0,SE,6.9,-,N/A,,Clear,130,2011-10-05 23:55:00
8:15 PM,53.6,41.0,62,30.28,10.0,ESE,5.8,-,N/A,,Clear,120,2011-10-06 00:15:00
8:35 PM,53.6,37.4,54,30.28,10.0,SE,5.8,-,N/A,,Clear,130,2011-10-06 00:35:00
8:55 PM,53.6,37.4,54,30.28,10.0,SE,5.8,-,N/A,,Clear,130,2011-10-06 00:55:00
9:15 PM,53.6,39.2,58,30.29,10.0,SE,6.9,-,N/A,,Clear,130,2011-10-06 01:15:00
9:35 PM,51.8,39.2,62,30.29,10.0,SE,6.9,-,N/A,,Clear,140,2011-10-06 01:35:00
9:55 PM,51.8,39.2,62,30.29,10.0,SSE,5.8,-,N/A,,Clear,150,2011-10-06 01:55:00
10:15 PM,51.8,39.2,62,30.29,10.0,SSE,5.8,-,N/A,,Clear,150,2011-10-06 02:15:00
10:35 PM,51.8,37.4,58,30.29,10.0,SSE,4.6,-,N/A,,Clear,160,2011-10-06 02:35:00
10:54 PM,51.8,37.4,58,30.30,10.0,SSE,3.5,-,N/A,,Clear,150,2011-10-06 02:54:00
11:15 PM,51.8,35.6,54,30.30,10.0,SSE,5.8,-,N/A,,Clear,150,2011-10-06 03:15:00
11:35 PM,51.8,35.6,54,30.30,10.0,SSE,4.6,-,N/A,,Clear,150,2011-10-06 03:35:00
11:54 PM,51.8,37.4,58,30.30,10.0,SSE,3.5,-,N/A,,Clear,150,2011-10-06 03:54:00